Вернуться в каталог

COSMOS 970 DEB

АктивенLEO
NORAD 13503·DEBRIS·🇷🇺 Russia

Запущен Dec 21, 1977 с Baikonur Cosmodrome

Loading…

Ближайшие Пролёты (ближайшие 24 часа)

TLE

СвежийSource: Space-Track

Эпоха: Sep 14, 2026, 11:02 UTC

1 13503U 77121BA  26257.45986721 -.00000007  00000-0  95944-4 0  9997
2 13503  66.4718 327.8584 0075658  35.2014 338.4607 13.52456049169241

Отслеживайте COSMOS 970 DEB в реальном времени с AllMySat

Download on the App Store